Time,TemperatureF,DewpointF,PressureIn,WindDirection,WindDirectionDegrees,WindSpeedMPH,WindSpeedGustMPH,Humidity,HourlyPrecipIn,Conditions,Clouds,dailyrainin,SoftwareType,DateUTC
2013-11-18 00:02:00,48.0,24.2,30.10,NNE,28,16.0,18.0,39,0.00,,,0.00,Wunderground v.1.15,2013-11-18 06:02:00,
2013-11-18 00:08:00,47.8,24.6,30.12,NNE,19,12.0,18.0,40,0.00,,,0.00,Wunderground v.1.15,2013-11-18 06:08:00,
2013-11-18 00:13:00,47.5,24.9,30.13,NNE,26,10.0,11.0,41,0.00,,,0.00,Wunderground v.1.15,2013-11-18 06:13:00,
2013-11-18 00:18:00,47.0,24.5,30.13,NNE,20,8.0,12.0,41,0.00,,,0.00,Wunderground v.1.15,2013-11-18 06:18:00,
2013-11-18 00:23:00,46.5,24.6,30.13,North,360,8.0,11.0,42,0.00,,,0.00,Wunderground v.1.15,2013-11-18 06:23:00,
2013-11-18 00:28:00,46.5,24.6,30.14,North,360,9.0,12.0,42,0.00,,,0.00,Wunderground v.1.15,2013-11-18 06:28:00,
2013-11-18 00:33:00,46.5,24.6,30.14,NNE,15,8.0,12.0,42,0.00,,,0.00,Wunderground v.1.15,2013-11-18 06:33:00,
2013-11-18 00:39:00,46.4,24.5,30.14,North,355,7.0,12.0,42,0.00,,,0.00,Wunderground v.1.15,2013-11-18 06:39:00,
2013-11-18 00:45:00,46.1,24.8,30.14,North,5,6.0,12.0,43,0.00,,,0.00,Wunderground v.1.15,2013-11-18 06:45:00,
2013-11-18 00:51:00,45.5,25.4,30.14,North,360,6.0,6.0,45,0.00,,,0.00,Wunderground v.1.15,2013-11-18 06:51:00,
2013-11-18 00:57:00,44.8,26.3,30.15,North,355,4.0,6.0,48,0.00,,,0.00,Wunderground v.1.15,2013-11-18 06:57:00,
2013-11-18 01:02:00,43.4,26.5,30.16,West,280,3.0,4.0,51,0.00,,,0.00,Wunderground v.1.15,2013-11-18 07:02:00,
2013-11-18 01:08:00,42.0,26.1,30.16,SSW,211,4.0,6.0,53,0.00,,,0.00,Wunderground v.1.15,2013-11-18 07:08:00,
2013-11-18 01:13:00,41.7,25.8,30.17,SSW,209,4.0,5.0,53,0.00,,,0.00,Wunderground v.1.15,2013-11-18 07:13:00,
2013-11-18 01:18:00,41.1,25.7,30.17,SW,227,4.0,5.0,54,0.00,,,0.00,Wunderground v.1.15,2013-11-18 07:18:00,
2013-11-18 01:23:00,41.0,25.6,30.17,WSW,238,4.0,5.0,54,0.00,,,0.00,Wunderground v.1.15,2013-11-18 07:23:00,
2013-11-18 01:29:00,41.0,26.1,30.17,WSW,240,3.0,5.0,55,0.00,,,0.00,Wunderground v.1.15,2013-11-18 07:29:00,
2013-11-18 01:35:00,40.9,26.4,30.17,WSW,247,3.0,5.0,56,0.00,,,0.00,Wunderground v.1.15,2013-11-18 07:35:00,
2013-11-18 01:40:00,40.5,26.0,30.17,WSW,251,3.0,4.0,56,0.00,,,0.00,Wunderground v.1.15,2013-11-18 07:40:00,
2013-11-18 01:46:00,40.2,26.2,30.17,West,265,3.0,4.0,57,0.00,,,0.00,Wunderground v.1.15,2013-11-18 07:46:00,
2013-11-18 01:51:00,40.0,26.0,30.18,West,269,3.0,5.0,57,0.00,,,0.00,Wunderground v.1.15,2013-11-18 07:51:00,
2013-11-18 01:56:00,39.9,25.9,30.17,West,269,3.0,5.0,57,0.00,,,0.00,Wunderground v.1.15,2013-11-18 07:56:00,
2013-11-18 02:02:00,39.9,25.9,30.17,West,269,3.0,4.0,57,0.00,,,0.00,Wunderground v.1.15,2013-11-18 08:02:00,
2013-11-18 02:08:00,40.0,26.0,30.17,West,271,4.0,4.0,57,0.00,,,0.00,Wunderground v.1.15,2013-11-18 08:08:00,
2013-11-18 02:13:00,40.1,26.5,30.18,WNW,298,4.0,5.0,58,0.00,,,0.00,Wunderground v.1.15,2013-11-18 08:13:00,
2013-11-18 02:18:00,39.5,26.8,30.19,WNW,296,4.0,5.0,60,0.00,,,0.00,Wunderground v.1.15,2013-11-18 08:18:00,
2013-11-18 02:24:00,39.1,26.8,30.19,WNW,292,3.0,4.0,61,0.00,,,0.00,Wunderground v.1.15,2013-11-18 08:24:00,
2013-11-18 02:29:00,38.9,26.6,30.19,West,277,4.0,5.0,61,0.00,,,0.00,Wunderground v.1.15,2013-11-18 08:29:00,
2013-11-18 02:35:00,38.6,26.7,30.20,West,273,4.0,5.0,62,0.00,,,0.00,Wunderground v.1.15,2013-11-18 08:35:00,
2013-11-18 02:41:00,38.6,26.7,30.20,West,271,4.0,4.0,62,0.00,,,0.00,Wunderground v.1.15,2013-11-18 08:41:00,
2013-11-18 02:46:00,38.4,26.9,30.20,West,265,4.0,5.0,63,0.00,,,0.00,Wunderground v.1.15,2013-11-18 08:46:00,
2013-11-18 02:52:00,38.0,26.5,30.21,West,269,3.0,4.0,63,0.00,,,0.00,Wunderground v.1.15,2013-11-18 08:52:00,
2013-11-18 02:58:00,37.8,26.7,30.21,West,269,4.0,5.0,64,0.00,,,0.00,Wunderground v.1.15,2013-11-18 08:58:00,
2013-11-18 03:03:00,37.7,26.6,30.21,West,270,3.0,4.0,64,0.00,,,0.00,Wunderground v.1.15,2013-11-18 09:03:00,
2013-11-18 03:08:00,37.5,26.8,30.21,West,275,4.0,5.0,65,0.00,,,0.00,Wunderground v.1.15,2013-11-18 09:08:00,
2013-11-18 03:14:00,37.1,26.4,30.21,WNW,298,5.0,5.0,65,0.00,,,0.00,Wunderground v.1.15,2013-11-18 09:14:00,
2013-11-18 03:19:00,37.3,26.6,30.21,WNW,298,5.0,6.0,65,0.00,,,0.00,Wunderground v.1.15,2013-11-18 09:19:00,
2013-11-18 03:25:00,37.5,27.2,30.21,WNW,300,5.0,6.0,66,0.00,,,0.00,Wunderground v.1.15,2013-11-18 09:25:00,
2013-11-18 03:31:00,37.2,27.2,30.20,NW,312,5.0,7.0,67,0.00,,,0.00,Wunderground v.1.15,2013-11-18 09:31:00,
2013-11-18 03:37:00,37.4,27.1,30.21,NW,321,6.0,7.0,66,0.00,,,0.00,Wunderground v.1.15,2013-11-18 09:37:00,
2013-11-18 03:43:00,38.2,27.5,30.21,NW,326,6.0,7.0,65,0.00,,,0.00,Wunderground v.1.15,2013-11-18 09:43:00,
2013-11-18 03:48:00,38.4,27.3,30.20,NNW,328,7.0,9.0,64,0.00,,,0.00,Wunderground v.1.15,2013-11-18 09:48:00,
2013-11-18 03:54:00,38.5,27.7,30.21,NNW,327,8.0,9.0,65,0.00,,,0.00,Wunderground v.1.15,2013-11-18 09:54:00,
2013-11-18 03:59:00,38.6,27.8,30.20,NNW,330,8.0,9.0,65,0.00,,,0.00,Wunderground v.1.15,2013-11-18 09:59:00,
2013-11-18 04:05:00,38.3,27.6,30.21,NNW,328,8.0,9.0,65,0.00,,,0.00,Wunderground v.1.15,2013-11-18 10:05:00,
2013-11-18 04:11:00,38.0,27.6,30.21,NNW,328,7.0,8.0,66,0.00,,,0.00,Wunderground v.1.15,2013-11-18 10:11:00,
2013-11-18 04:16:00,37.8,27.5,30.21,NNW,327,7.0,8.0,66,0.00,,,0.00,Wunderground v.1.15,2013-11-18 10:16:00,
2013-11-18 04:21:00,37.8,27.8,30.21,NW,325,7.0,8.0,67,0.00,,,0.00,Wunderground v.1.15,2013-11-18 10:21:00,
2013-11-18 04:27:00,37.7,27.7,30.22,NW,313,7.0,8.0,67,0.00,,,0.00,Wunderground v.1.15,2013-11-18 10:27:00,
2013-11-18 04:33:00,37.2,27.6,30.22,NW,314,5.0,6.0,68,0.00,,,0.00,Wunderground v.1.15,2013-11-18 10:33:00,
2013-11-18 04:38:00,37.0,27.8,30.22,NW,316,5.0,6.0,69,0.00,,,0.00,Wunderground v.1.15,2013-11-18 10:38:00,
2013-11-18 04:43:00,36.9,28.0,30.22,NW,306,5.0,6.0,70,0.00,,,0.00,Wunderground v.1.15,2013-11-18 10:43:00,
2013-11-18 04:48:00,36.7,27.5,30.23,NW,304,5.0,6.0,69,0.00,,,0.00,Wunderground v.1.15,2013-11-18 10:48:00,
2013-11-18 04:53:00,36.8,27.6,30.23,NW,304,4.0,5.0,69,0.00,,,0.00,Wunderground v.1.15,2013-11-18 10:53:00,
2013-11-18 04:59:00,36.9,27.3,30.23,NW,312,5.0,6.0,68,0.00,,,0.00,Wunderground v.1.15,2013-11-18 10:59:00,
2013-11-18 05:05:00,36.8,27.6,30.23,WNW,300,5.0,5.0,69,0.00,,,0.00,Wunderground v.1.15,2013-11-18 11:05:00,
2013-11-18 05:11:00,36.9,27.7,30.23,WNW,302,4.0,5.0,69,0.00,,,0.00,Wunderground v.1.15,2013-11-18 11:11:00,
2013-11-18 05:17:00,37.0,27.8,30.24,WNW,300,4.0,5.0,69,0.00,,,0.00,Wunderground v.1.15,2013-11-18 11:17:00,
2013-11-18 05:23:00,36.7,27.5,30.24,WNW,297,4.0,5.0,69,0.00,,,0.00,Wunderground v.1.15,2013-11-18 11:23:00,
2013-11-18 05:29:00,36.8,27.6,30.24,WNW,299,5.0,6.0,69,0.00,,,0.00,Wunderground v.1.15,2013-11-18 11:29:00,
2013-11-18 05:34:00,36.7,27.5,30.24,WNW,294,5.0,6.0,69,0.00,,,0.00,Wunderground v.1.15,2013-11-18 11:34:00,
2013-11-18 05:39:00,36.4,27.5,30.24,West,276,4.0,6.0,70,0.00,,,0.00,Wunderground v.1.15,2013-11-18 11:39:00,
2013-11-18 05:44:00,36.2,27.4,30.24,WNW,286,4.0,5.0,70,0.00,,,0.00,Wunderground v.1.15,2013-11-18 11:44:00,
2013-11-18 05:50:00,36.1,27.6,30.25,West,276,4.0,4.0,71,0.00,,,0.00,Wunderground v.1.15,2013-11-18 11:50:00,
2013-11-18 05:56:00,36.1,27.6,30.25,WNW,287,4.0,5.0,71,0.00,,,0.00,Wunderground v.1.15,2013-11-18 11:56:00,
2013-11-18 06:02:00,35.9,27.4,30.25,West,279,4.0,5.0,71,0.00,,,0.00,Wunderground v.1.15,2013-11-18 12:02:00,
2013-11-18 06:08:00,35.5,27.7,30.26,West,276,5.0,6.0,73,0.00,,,0.00,Wunderground v.1.15,2013-11-18 12:08:00,
2013-11-18 06:14:00,35.2,27.7,30.26,West,269,5.0,7.0,74,0.00,,,0.00,Wunderground v.1.15,2013-11-18 12:14:00,
2013-11-18 06:20:00,34.9,27.8,30.26,West,272,5.0,5.0,75,0.00,,,0.00,Wunderground v.1.15,2013-11-18 12:20:00,
2013-11-18 06:26:00,34.7,27.9,30.26,WNW,284,4.0,6.0,76,0.00,,,0.00,Wunderground v.1.15,2013-11-18 12:26:00,
2013-11-18 06:32:00,34.4,27.6,30.27,West,272,4.0,5.0,76,0.00,,,0.00,Wunderground v.1.15,2013-11-18 12:32:00,
2013-11-18 06:38:00,34.2,27.7,30.27,WNW,284,5.0,6.0,77,0.00,,,0.00,Wunderground v.1.15,2013-11-18 12:38:00,
2013-11-18 06:45:00,34.1,27.6,30.27,West,276,5.0,6.0,77,0.00,,,0.00,Wunderground v.1.15,2013-11-18 12:45:00,
2013-11-18 06:51:00,33.9,27.8,30.27,WNW,287,5.0,6.0,78,0.00,,,0.00,Wunderground v.1.15,2013-11-18 12:51:00,
2013-11-18 06:56:00,33.8,27.7,30.28,WNW,293,5.0,6.0,78,0.00,,,0.00,Wunderground v.1.15,2013-11-18 12:56:00,
2013-11-18 07:01:00,33.6,27.8,30.28,WNW,295,5.0,6.0,79,0.00,,,0.00,Wunderground v.1.15,2013-11-18 13:01:00,
2013-11-18 07:07:00,33.7,28.2,30.28,WNW,293,5.0,6.0,80,0.00,,,0.00,Wunderground v.1.15,2013-11-18 13:07:00,
2013-11-18 07:12:00,33.7,28.2,30.28,WNW,292,5.0,5.0,80,0.00,,,0.00,Wunderground v.1.15,2013-11-18 13:12:00,
2013-11-18 07:18:00,33.9,29.0,30.28,WNW,288,4.0,5.0,82,0.00,,,0.00,Wunderground v.1.15,2013-11-18 13:18:00,
2013-11-18 07:24:00,34.1,29.2,30.28,WNW,296,4.0,5.0,82,0.00,,,0.00,Wunderground v.1.15,2013-11-18 13:24:00,
2013-11-18 07:30:00,34.2,29.3,30.29,WNW,298,5.0,5.0,82,0.00,,,0.00,Wunderground v.1.15,2013-11-18 13:30:00,
2013-11-18 07:36:00,34.4,29.5,30.29,WNW,302,5.0,6.0,82,0.00,,,0.00,Wunderground v.1.15,2013-11-18 13:36:00,
2013-11-18 07:41:00,34.6,30.0,30.29,NW,316,5.0,7.0,83,0.00,,,0.00,Wunderground v.1.15,2013-11-18 13:41:00,
2013-11-18 07:47:00,35.1,30.2,30.29,NW,317,6.0,7.0,82,0.00,,,0.00,Wunderground v.1.15,2013-11-18 13:47:00,
2013-11-18 07:52:00,35.5,30.5,30.29,NW,310,5.0,5.0,82,0.00,,,0.00,Wunderground v.1.15,2013-11-18 13:52:00,
2013-11-18 07:57:00,35.8,31.1,30.29,NW,311,4.0,5.0,83,0.00,,,0.00,Wunderground v.1.15,2013-11-18 13:57:00,
2013-11-18 08:02:00,36.2,31.2,30.29,NW,309,4.0,5.0,82,0.00,,,0.00,Wunderground v.1.15,2013-11-18 14:02:00,
2013-11-18 08:08:00,36.9,31.9,30.29,NW,311,4.0,5.0,82,0.00,,,0.00,Wunderground v.1.15,2013-11-18 14:08:00,
2013-11-18 08:14:00,38.0,32.7,30.30,NW,311,4.0,6.0,81,0.00,,,0.00,Wunderground v.1.15,2013-11-18 14:14:00,
2013-11-18 08:19:00,39.0,32.4,30.30,NW,319,4.0,6.0,77,0.00,,,0.00,Wunderground v.1.15,2013-11-18 14:19:00,
2013-11-18 08:24:00,40.0,32.4,30.30,NW,316,4.0,6.0,74,0.00,,,0.00,Wunderground v.1.15,2013-11-18 14:24:00,
2013-11-18 08:29:00,40.7,32.7,30.30,NW,312,4.0,6.0,73,0.00,,,0.00,Wunderground v.1.15,2013-11-18 14:29:00,
2013-11-18 08:35:00,41.6,33.2,30.31,WNW,298,4.0,5.0,72,0.00,,,0.00,Wunderground v.1.15,2013-11-18 14:35:00,
2013-11-18 08:41:00,42.4,33.7,30.31,NW,313,4.0,5.0,71,0.00,,,0.00,Wunderground v.1.15,2013-11-18 14:41:00,
2013-11-18 08:47:00,43.0,33.5,30.31,NW,312,4.0,5.0,69,0.00,,,0.00,Wunderground v.1.15,2013-11-18 14:47:00,
2013-11-18 08:52:00,43.5,33.6,30.31,NW,304,4.0,5.0,68,0.00,,,0.00,Wunderground v.1.15,2013-11-18 14:52:00,
2013-11-18 08:57:00,44.1,33.8,30.31,NW,310,4.0,5.0,67,0.00,,,0.00,Wunderground v.1.15,2013-11-18 14:57:00,
2013-11-18 09:03:00,44.9,33.1,30.32,NW,311,3.0,4.0,63,0.00,,,0.00,Wunderground v.1.15,2013-11-18 15:03:00,
2013-11-18 09:10:00,45.5,32.8,30.32,WNW,301,3.0,4.0,61,0.00,,,0.00,Wunderground v.1.15,2013-11-18 15:10:00,
2013-11-18 09:15:00,46.0,33.3,30.32,WNW,298,3.0,4.0,61,0.00,,,0.00,Wunderground v.1.15,2013-11-18 15:15:00,
2013-11-18 09:20:00,46.5,34.2,30.32,WNW,298,2.0,2.0,62,0.00,,,0.00,Wunderground v.1.15,2013-11-18 15:20:00,
2013-11-18 09:25:00,47.0,33.0,30.32,WNW,298,1.0,2.0,58,0.00,,,0.00,Wunderground v.1.15,2013-11-18 15:25:00,
2013-11-18 09:30:00,47.5,33.9,30.32,WNW,298,0.0,0.0,59,0.00,,,0.00,Wunderground v.1.15,2013-11-18 15:30:00,
2013-11-18 09:36:00,48.0,32.6,30.32,WNW,298,1.0,3.0,55,0.00,,,0.00,Wunderground v.1.15,2013-11-18 15:36:00,
2013-11-18 09:42:00,48.5,29.7,30.32,WNW,302,2.0,2.0,48,0.00,,,0.00,Wunderground v.1.15,2013-11-18 15:42:00,
2013-11-18 09:47:00,49.0,30.1,30.32,NW,309,1.0,3.0,48,0.00,,,0.00,Wunderground v.1.15,2013-11-18 15:47:00,
2013-11-18 09:53:00,49.6,30.2,30.32,WNW,298,0.0,2.0,47,0.00,,,0.00,Wunderground v.1.15,2013-11-18 15:53:00,
2013-11-18 09:59:00,50.4,30.9,30.32,WSW,244,1.0,4.0,47,0.00,,,0.00,Wunderground v.1.15,2013-11-18 15:59:00,
2013-11-18 10:04:00,50.9,29.2,30.33,South,183,2.0,4.0,43,0.00,,,0.00,Wunderground v.1.15,2013-11-18 16:04:00,
2013-11-18 10:08:00,51.0,29.3,30.32,South,184,3.0,5.0,43,0.00,,,0.00,Wunderground v.1.15,2013-11-18 16:08:00,
2013-11-18 10:13:00,51.0,29.3,30.32,SSE,159,3.0,5.0,43,0.00,,,0.00,Wunderground v.1.15,2013-11-18 16:13:00,
2013-11-18 10:18:00,51.4,29.6,30.33,SSE,162,3.0,5.0,43,0.00,,,0.00,Wunderground v.1.15,2013-11-18 16:18:00,
2013-11-18 10:24:00,51.9,31.7,30.33,SSW,200,2.0,4.0,46,0.00,,,0.00,Wunderground v.1.15,2013-11-18 16:24:00,
2013-11-18 10:29:00,52.3,29.9,30.33,South,186,2.0,6.0,42,0.00,,,0.00,Wunderground v.1.15,2013-11-18 16:29:00,
2013-11-18 10:35:00,52.2,28.0,30.33,South,178,3.0,5.0,39,0.00,,,0.00,Wunderground v.1.15,2013-11-18 16:35:00,
2013-11-18 10:41:00,52.7,29.0,30.33,South,171,3.0,5.0,40,0.00,,,0.00,Wunderground v.1.15,2013-11-18 16:41:00,
2013-11-18 10:47:00,53.2,28.2,30.33,SSE,160,3.0,5.0,38,0.00,,,0.00,Wunderground v.1.15,2013-11-18 16:47:00,
2013-11-18 10:54:00,53.8,27.4,30.33,SSE,150,3.0,4.0,36,0.00,,,0.00,Wunderground v.1.15,2013-11-18 16:54:00,
2013-11-18 11:00:00,54.1,29.0,30.32,SSE,161,4.0,6.0,38,0.00,,,0.00,Wunderground v.1.15,2013-11-18 17:00:00,
2013-11-18 11:06:00,54.6,29.5,30.32,SSE,157,5.0,7.0,38,0.00,,,0.00,Wunderground v.1.15,2013-11-18 17:06:00,
2013-11-18 11:11:00,54.8,28.3,30.32,SE,134,4.0,6.0,36,0.00,,,0.00,Wunderground v.1.15,2013-11-18 17:11:00,
2013-11-18 11:16:00,55.0,27.1,30.33,ESE,115,4.0,8.0,34,0.00,,,0.00,Wunderground v.1.15,2013-11-18 17:16:00,
2013-11-18 11:21:00,55.2,28.0,30.33,ESE,122,4.0,7.0,35,0.00,,,0.00,Wunderground v.1.15,2013-11-18 17:21:00,
2013-11-18 11:27:00,55.5,27.6,30.32,ESE,115,4.0,7.0,34,0.00,,,0.00,Wunderground v.1.15,2013-11-18 17:27:00,
2013-11-18 11:33:00,55.9,27.9,30.32,SE,145,4.0,5.0,34,0.00,,,0.00,Wunderground v.1.15,2013-11-18 17:33:00,
2013-11-18 11:39:00,56.0,24.2,30.32,SSE,154,4.0,7.0,29,0.00,,,0.00,Wunderground v.1.15,2013-11-18 17:39:00,
2013-11-18 11:45:00,55.8,25.6,30.32,SSE,158,4.0,7.0,31,0.00,,,0.00,Wunderground v.1.15,2013-11-18 17:45:00,
2013-11-18 11:51:00,56.1,25.8,30.32,SSE,148,4.0,5.0,31,0.00,,,0.00,Wunderground v.1.15,2013-11-18 17:51:00,
2013-11-18 11:57:00,56.3,26.0,30.32,ENE,76,4.0,6.0,31,0.00,,,0.00,Wunderground v.1.15,2013-11-18 17:57:00,
2013-11-18 12:03:00,56.3,26.8,30.32,ENE,77,3.0,5.0,32,0.00,,,0.00,Wunderground v.1.15,2013-11-18 18:03:00,
2013-11-18 12:09:00,56.3,27.5,30.31,East,81,4.0,8.0,33,0.00,,,0.00,Wunderground v.1.15,2013-11-18 18:09:00,
2013-11-18 12:15:00,56.4,26.9,30.31,East,80,4.0,5.0,32,0.00,,,0.00,Wunderground v.1.15,2013-11-18 18:15:00,
2013-11-18 12:21:00,56.6,25.5,30.31,NNW,331,2.0,3.0,30,0.00,,,0.00,Wunderground v.1.15,2013-11-18 18:21:00,
2013-11-18 12:27:00,57.4,28.5,30.31,SSW,205,2.0,7.0,33,0.00,,,0.00,Wunderground v.1.15,2013-11-18 18:27:00,
2013-11-18 12:33:00,58.0,27.5,30.30,SE,141,2.0,7.0,31,0.00,,,0.00,Wunderground v.1.15,2013-11-18 18:33:00,
2013-11-18 12:38:00,58.0,25.9,30.30,SE,137,3.0,7.0,29,0.00,,,0.00,Wunderground v.1.15,2013-11-18 18:38:00,
2013-11-18 12:43:00,58.1,26.8,30.30,SE,146,2.0,6.0,30,0.00,,,0.00,Wunderground v.1.15,2013-11-18 18:43:00,
2013-11-18 12:48:00,58.3,27.0,30.30,SSE,168,3.0,7.0,30,0.00,,,0.00,Wunderground v.1.15,2013-11-18 18:48:00,
2013-11-18 12:53:00,58.2,25.2,30.29,South,174,4.0,6.0,28,0.00,,,0.00,Wunderground v.1.15,2013-11-18 18:53:00,
2013-11-18 12:59:00,58.4,26.2,30.29,SSE,161,3.0,8.0,29,0.00,,,0.00,Wunderground v.1.15,2013-11-18 18:59:00,
2013-11-18 13:05:00,58.5,24.6,30.29,SSW,200,3.0,8.0,27,0.00,,,0.00,Wunderground v.1.15,2013-11-18 19:05:00,
2013-11-18 13:10:00,58.8,26.6,30.29,South,169,4.0,4.0,29,0.00,,,0.00,Wunderground v.1.15,2013-11-18 19:10:00,
2013-11-18 13:16:00,58.7,24.8,30.28,South,169,4.0,7.0,27,0.00,,,0.00,Wunderground v.1.15,2013-11-18 19:16:00,
2013-11-18 13:22:00,58.7,26.5,30.28,South,183,4.0,7.0,29,0.00,,,0.00,Wunderground v.1.15,2013-11-18 19:22:00,
2013-11-18 13:28:00,58.5,23.7,30.28,SW,217,6.0,8.0,26,0.00,,,0.00,Wunderground v.1.15,2013-11-18 19:28:00,
2013-11-18 13:34:00,58.7,23.9,30.28,SSW,200,5.0,7.0,26,0.00,,,0.00,Wunderground v.1.15,2013-11-18 19:34:00,
2013-11-18 13:39:00,58.8,24.9,30.28,South,186,5.0,10.0,27,0.00,,,0.00,Wunderground v.1.15,2013-11-18 19:39:00,
2013-11-18 13:45:00,59.0,25.0,30.28,SSE,162,6.0,8.0,27,0.00,,,0.00,Wunderground v.1.15,2013-11-18 19:45:00,
2013-11-18 13:50:00,59.3,25.3,30.27,South,175,5.0,10.0,27,0.00,,,0.00,Wunderground v.1.15,2013-11-18 19:50:00,
2013-11-18 13:55:00,59.2,25.2,30.27,South,175,5.0,10.0,27,0.00,,,0.00,Wunderground v.1.15,2013-11-18 19:55:00,
2013-11-18 14:00:00,59.1,22.3,30.27,South,171,5.0,5.0,24,0.00,,,0.00,Wunderground v.1.15,2013-11-18 20:00:00,
2013-11-18 14:06:00,59.1,24.2,30.27,South,175,6.0,12.0,26,0.00,,,0.00,Wunderground v.1.15,2013-11-18 20:06:00,
2013-11-18 14:11:00,59.1,23.3,30.27,South,180,6.0,10.0,25,0.00,,,0.00,Wunderground v.1.15,2013-11-18 20:11:00,
2013-11-18 14:16:00,59.3,23.4,30.26,SSW,193,6.0,10.0,25,0.00,,,0.00,Wunderground v.1.15,2013-11-18 20:16:00,
2013-11-18 14:22:00,59.5,23.6,30.26,SSE,150,6.0,9.0,25,0.00,,,0.00,Wunderground v.1.15,2013-11-18 20:22:00,
2013-11-18 14:27:00,59.3,21.5,30.26,SSE,150,7.0,10.0,23,0.00,,,0.00,Wunderground v.1.15,2013-11-18 20:27:00,
2013-11-18 14:32:00,59.3,23.4,30.26,SE,138,6.0,6.0,25,0.00,,,0.00,Wunderground v.1.15,2013-11-18 20:32:00,
2013-11-18 14:38:00,60.0,23.1,30.26,SE,144,5.0,9.0,24,0.00,,,0.00,Wunderground v.1.15,2013-11-18 20:38:00,
2013-11-18 14:44:00,59.8,22.9,30.26,SE,140,7.0,11.0,24,0.00,,,0.00,Wunderground v.1.15,2013-11-18 20:44:00,
2013-11-18 14:50:00,59.6,22.7,30.26,South,171,8.0,8.0,24,0.00,,,0.00,Wunderground v.1.15,2013-11-18 20:50:00,
2013-11-18 14:55:00,59.4,21.5,30.26,SSE,160,7.0,10.0,23,0.00,,,0.00,Wunderground v.1.15,2013-11-18 20:55:00,
2013-11-18 15:00:00,59.4,23.5,30.26,SSW,192,7.0,9.0,25,0.00,,,0.00,Wunderground v.1.15,2013-11-18 21:00:00,
2013-11-18 15:05:00,59.5,22.6,30.25,SSE,157,6.0,10.0,24,0.00,,,0.00,Wunderground v.1.15,2013-11-18 21:05:00,
2013-11-18 15:10:00,59.8,21.9,30.25,SSE,165,4.0,4.0,23,0.00,,,0.00,Wunderground v.1.15,2013-11-18 21:10:00,
2013-11-18 15:16:00,60.0,24.0,30.25,South,170,4.0,8.0,25,0.00,,,0.00,Wunderground v.1.15,2013-11-18 21:16:00,
2013-11-18 15:22:00,60.0,21.0,30.25,SSE,154,5.0,6.0,22,0.00,,,0.00,Wunderground v.1.15,2013-11-18 21:22:00,
2013-11-18 15:28:00,60.3,22.3,30.25,SE,140,4.0,8.0,23,0.00,,,0.00,Wunderground v.1.15,2013-11-18 21:28:00,
2013-11-18 15:34:00,60.1,24.1,30.25,SSE,151,5.0,10.0,25,0.00,,,0.00,Wunderground v.1.15,2013-11-18 21:34:00,
2013-11-18 15:40:00,59.8,23.9,30.25,South,171,6.0,8.0,25,0.00,,,0.00,Wunderground v.1.15,2013-11-18 21:40:00,
2013-11-18 15:46:00,59.8,23.9,30.26,SSE,150,5.0,8.0,25,0.00,,,0.00,Wunderground v.1.15,2013-11-18 21:46:00,
2013-11-18 15:52:00,59.6,25.5,30.25,SSE,158,6.0,9.0,27,0.00,,,0.00,Wunderground v.1.15,2013-11-18 21:52:00,
2013-11-18 15:57:00,58.6,26.4,30.25,SE,144,7.0,11.0,29,0.00,,,0.00,Wunderground v.1.15,2013-11-18 21:57:00,
2013-11-18 16:02:00,58.2,25.2,30.25,SSE,148,7.0,7.0,28,0.00,,,0.00,Wunderground v.1.15,2013-11-18 22:02:00,
2013-11-18 16:07:00,58.0,25.0,30.25,SSE,150,6.0,7.0,28,0.00,,,0.00,Wunderground v.1.15,2013-11-18 22:07:00,
2013-11-18 16:12:00,57.9,27.4,30.25,SSE,160,5.0,7.0,31,0.00,,,0.00,Wunderground v.1.15,2013-11-18 22:12:00,
2013-11-18 16:18:00,57.3,26.9,30.25,SSE,152,5.0,7.0,31,0.00,,,0.00,Wunderground v.1.15,2013-11-18 22:18:00,
2013-11-18 16:24:00,56.8,25.7,30.25,SSE,153,4.0,6.0,30,0.00,,,0.00,Wunderground v.1.15,2013-11-18 22:24:00,
2013-11-18 16:29:00,56.5,26.2,30.25,SSE,153,4.0,6.0,31,0.00,,,0.00,Wunderground v.1.15,2013-11-18 22:29:00,
2013-11-18 16:35:00,56.3,27.5,30.25,SSE,154,3.0,4.0,33,0.00,,,0.00,Wunderground v.1.15,2013-11-18 22:35:00,
2013-11-18 16:41:00,55.9,27.2,30.25,SSE,158,4.0,5.0,33,0.00,,,0.00,Wunderground v.1.15,2013-11-18 22:41:00,
2013-11-18 16:47:00,56.4,25.3,30.25,SSE,161,4.0,5.0,30,0.00,,,0.00,Wunderground v.1.15,2013-11-18 22:47:00,
2013-11-18 16:53:00,56.5,27.0,30.25,SSE,157,4.0,5.0,32,0.00,,,0.00,Wunderground v.1.15,2013-11-18 22:53:00,
2013-11-18 16:59:00,56.0,25.8,30.25,SSE,157,3.0,5.0,31,0.00,,,0.00,Wunderground v.1.15,2013-11-18 22:59:00,
2013-11-18 17:04:00,55.5,26.8,30.25,SSE,157,3.0,4.0,33,0.00,,,0.00,Wunderground v.1.15,2013-11-18 23:04:00,
2013-11-18 17:09:00,54.7,26.8,30.25,SSW,194,4.0,6.0,34,0.00,,,0.00,Wunderground v.1.15,2013-11-18 23:09:00,
2013-11-18 17:15:00,54.3,25.8,30.25,South,186,5.0,6.0,33,0.00,,,0.00,Wunderground v.1.15,2013-11-18 23:15:00,
2013-11-18 17:20:00,54.1,24.9,30.25,South,184,4.0,5.0,32,0.00,,,0.00,Wunderground v.1.15,2013-11-18 23:20:00,
2013-11-18 17:25:00,54.1,24.1,30.25,South,179,4.0,5.0,31,0.00,,,0.00,Wunderground v.1.15,2013-11-18 23:25:00,
2013-11-18 17:31:00,53.9,25.4,30.25,South,173,4.0,6.0,33,0.00,,,0.00,Wunderground v.1.15,2013-11-18 23:31:00,
2013-11-18 17:36:00,53.7,24.5,30.25,South,171,5.0,7.0,32,0.00,,,0.00,Wunderground v.1.15,2013-11-18 23:36:00,
2013-11-18 17:41:00,53.8,23.8,30.25,SSE,161,4.0,5.0,31,0.00,,,0.00,Wunderground v.1.15,2013-11-18 23:41:00,
2013-11-18 17:47:00,53.7,23.7,30.25,SSE,159,4.0,6.0,31,0.00,,,0.00,Wunderground v.1.15,2013-11-18 23:47:00,
2013-11-18 17:52:00,53.3,24.2,30.25,SSE,163,4.0,5.0,32,0.00,,,0.00,Wunderground v.1.15,2013-11-18 23:52:00,
2013-11-18 17:59:00,52.7,24.4,30.25,SSE,161,4.0,6.0,33,0.00,,,0.00,Wunderground v.1.15,2013-11-18 23:59:00,
2013-11-18 18:04:00,52.2,23.9,30.25,SSE,163,4.0,5.0,33,0.00,,,0.00,Wunderground v.1.15,2013-11-19 00:04:00,
2013-11-18 18:09:00,52.0,24.5,30.25,SSE,163,4.0,5.0,34,0.00,,,0.00,Wunderground v.1.15,2013-11-19 00:09:00,
2013-11-18 18:15:00,51.9,23.7,30.25,SSE,161,5.0,6.0,33,0.00,,,0.00,Wunderground v.1.15,2013-11-19 00:15:00,
2013-11-18 18:21:00,52.6,22.8,30.25,SSE,160,6.0,7.0,31,0.00,,,0.00,Wunderground v.1.15,2013-11-19 00:21:00,
2013-11-18 18:26:00,52.7,22.9,30.25,SSE,159,6.0,7.0,31,0.00,,,0.00,Wunderground v.1.15,2013-11-19 00:26:00,
2013-11-18 18:32:00,52.5,23.5,30.25,SSE,153,5.0,7.0,32,0.00,,,0.00,Wunderground v.1.15,2013-11-19 00:32:00,
2013-11-18 18:37:00,52.2,23.9,30.25,SSE,158,6.0,7.0,33,0.00,,,0.00,Wunderground v.1.15,2013-11-19 00:37:00,
2013-11-18 18:42:00,51.9,24.4,30.25,SE,138,5.0,7.0,34,0.00,,,0.00,Wunderground v.1.15,2013-11-19 00:42:00,
2013-11-18 18:48:00,51.6,23.4,30.25,SSE,158,5.0,7.0,33,0.00,,,0.00,Wunderground v.1.15,2013-11-19 00:48:00,
2013-11-18 18:53:00,51.6,23.4,30.25,SSE,155,5.0,8.0,33,0.00,,,0.00,Wunderground v.1.15,2013-11-19 00:53:00,
2013-11-18 18:59:00,51.3,23.8,30.25,SSE,159,6.0,8.0,34,0.00,,,0.00,Wunderground v.1.15,2013-11-19 00:59:00,
2013-11-18 19:05:00,51.2,23.0,30.25,SSE,154,5.0,7.0,33,0.00,,,0.00,Wunderground v.1.15,2013-11-19 01:05:00,
2013-11-18 19:10:00,51.1,23.7,30.25,SSE,156,5.0,7.0,34,0.00,,,0.00,Wunderground v.1.15,2013-11-19 01:10:00,
2013-11-18 19:16:00,50.8,24.1,30.25,SE,146,6.0,7.0,35,0.00,,,0.00,Wunderground v.1.15,2013-11-19 01:16:00,
2013-11-18 19:22:00,50.1,24.2,30.25,SE,140,6.0,8.0,36,0.00,,,0.00,Wunderground v.1.15,2013-11-19 01:22:00,
2013-11-18 19:28:00,49.5,24.3,30.25,SE,138,7.0,8.0,37,0.00,,,0.00,Wunderground v.1.15,2013-11-19 01:28:00,
2013-11-18 19:34:00,49.1,23.3,30.25,SE,125,6.0,6.0,36,0.00,,,0.00,Wunderground v.1.15,2013-11-19 01:34:00,
2013-11-18 19:39:00,49.1,23.9,30.25,ESE,112,5.0,6.0,37,0.00,,,0.00,Wunderground v.1.15,2013-11-19 01:39:00,
2013-11-18 19:45:00,49.0,23.2,30.25,ESE,115,4.0,5.0,36,0.00,,,0.00,Wunderground v.1.15,2013-11-19 01:45:00,
2013-11-18 19:50:00,49.0,23.2,30.25,ESE,116,4.0,7.0,36,0.00,,,0.00,Wunderground v.1.15,2013-11-19 01:50:00,
2013-11-18 19:56:00,49.1,22.6,30.25,ESE,117,5.0,7.0,35,0.00,,,0.00,Wunderground v.1.15,2013-11-19 01:56:00,
2013-11-18 20:01:00,49.1,22.6,30.25,SE,126,5.0,5.0,35,0.00,,,0.00,Wunderground v.1.15,2013-11-19 02:01:00,
2013-11-18 20:07:00,49.2,22.7,30.25,SE,134,5.0,8.0,35,0.00,,,0.00,Wunderground v.1.15,2013-11-19 02:07:00,
2013-11-18 20:13:00,48.8,23.6,30.25,SE,133,6.0,7.0,37,0.00,,,0.00,Wunderground v.1.15,2013-11-19 02:13:00,
2013-11-18 20:20:00,48.5,23.4,30.25,SE,132,6.0,6.0,37,0.00,,,0.00,Wunderground v.1.15,2013-11-19 02:20:00,
2013-11-18 20:25:00,48.1,24.9,30.25,SE,137,6.0,8.0,40,0.00,,,0.00,Wunderground v.1.15,2013-11-19 02:25:00,
2013-11-18 20:30:00,47.4,24.9,30.25,SE,139,7.0,8.0,41,0.00,,,0.00,Wunderground v.1.15,2013-11-19 02:30:00,
2013-11-18 20:35:00,46.9,25.0,30.25,SE,136,7.0,8.0,42,0.00,,,0.00,Wunderground v.1.15,2013-11-19 02:35:00,
2013-11-18 20:40:00,46.4,25.1,30.25,SE,135,7.0,9.0,43,0.00,,,0.00,Wunderground v.1.15,2013-11-19 02:40:00,
2013-11-18 20:47:00,46.1,25.4,30.25,SE,136,8.0,9.0,44,0.00,,,0.00,Wunderground v.1.15,2013-11-19 02:47:00,
2013-11-18 20:52:00,46.0,25.8,30.25,SE,141,7.0,9.0,45,0.00,,,0.00,Wunderground v.1.15,2013-11-19 02:52:00,
2013-11-18 20:58:00,45.7,26.1,30.25,SE,137,7.0,10.0,46,0.00,,,0.00,Wunderground v.1.15,2013-11-19 02:58:00,
2013-11-18 21:03:00,45.4,26.3,30.25,SE,143,7.0,9.0,47,0.00,,,0.00,Wunderground v.1.15,2013-11-19 03:03:00,
2013-11-18 21:08:00,45.3,26.7,30.25,SSE,147,8.0,10.0,48,0.00,,,0.00,Wunderground v.1.15,2013-11-19 03:08:00,
2013-11-18 21:14:00,45.3,26.2,30.25,SSE,148,8.0,9.0,47,0.00,,,0.00,Wunderground v.1.15,2013-11-19 03:14:00,
2013-11-18 21:20:00,45.3,26.2,30.25,SE,142,7.0,8.0,47,0.00,,,0.00,Wunderground v.1.15,2013-11-19 03:20:00,
2013-11-18 21:26:00,45.2,26.7,30.25,SE,144,7.0,8.0,48,0.00,,,0.00,Wunderground v.1.15,2013-11-19 03:26:00,
2013-11-18 21:31:00,45.0,27.0,30.25,SE,140,7.0,9.0,49,0.00,,,0.00,Wunderground v.1.15,2013-11-19 03:31:00,
2013-11-18 21:36:00,44.9,26.9,30.25,SE,140,7.0,9.0,49,0.00,,,0.00,Wunderground v.1.15,2013-11-19 03:36:00,
2013-11-18 21:42:00,44.9,25.9,30.25,SE,130,6.0,8.0,47,0.00,,,0.00,Wunderground v.1.15,2013-11-19 03:42:00,
2013-11-18 21:47:00,45.2,25.6,30.25,SE,126,6.0,8.0,46,0.00,,,0.00,Wunderground v.1.15,2013-11-19 03:47:00,
2013-11-18 21:53:00,45.5,25.9,30.25,SE,137,5.0,8.0,46,0.00,,,0.00,Wunderground v.1.15,2013-11-19 03:53:00,
2013-11-18 21:59:00,45.5,26.4,30.25,SE,133,6.0,9.0,47,0.00,,,0.00,Wunderground v.1.15,2013-11-19 03:59:00,
2013-11-18 22:04:00,45.3,26.2,30.25,ESE,123,6.0,8.0,47,0.00,,,0.00,Wunderground v.1.15,2013-11-19 04:04:00,
2013-11-18 22:09:00,45.4,26.3,30.25,SE,136,6.0,8.0,47,0.00,,,0.00,Wunderground v.1.15,2013-11-19 04:09:00,
2013-11-18 22:12:00,45.4,26.8,30.25,SE,136,6.0,8.0,48,0.00,,,0.00,Wunderground v.1.15,2013-11-19 04:12:00,
2013-11-18 22:18:00,45.0,27.0,30.25,SE,132,7.0,9.0,49,0.00,,,0.00,Wunderground v.1.15,2013-11-19 04:18:00,
2013-11-18 22:24:00,44.7,27.7,30.25,SE,134,6.0,8.0,51,0.00,,,0.00,Wunderground v.1.15,2013-11-19 04:24:00,
2013-11-18 22:29:00,44.5,27.0,30.25,SE,136,6.0,8.0,50,0.00,,,0.00,Wunderground v.1.15,2013-11-19 04:29:00,
2013-11-18 22:35:00,44.4,27.4,30.25,SE,136,7.0,9.0,51,0.00,,,0.00,Wunderground v.1.15,2013-11-19 04:35:00,
2013-11-18 22:41:00,44.5,28.0,30.25,SSE,149,7.0,10.0,52,0.00,,,0.00,Wunderground v.1.15,2013-11-19 04:41:00,
2013-11-18 22:46:00,44.5,28.0,30.25,SE,138,8.0,10.0,52,0.00,,,0.00,Wunderground v.1.15,2013-11-19 04:46:00,
2013-11-18 22:52:00,44.5,28.4,30.25,SE,145,8.0,8.0,53,0.00,,,0.00,Wunderground v.1.15,2013-11-19 04:52:00,
2013-11-18 22:58:00,44.3,28.2,30.25,SE,136,7.0,8.0,53,0.00,,,0.00,Wunderground v.1.15,2013-11-19 04:58:00,
2013-11-18 23:01:00,44.2,28.1,30.25,SE,140,7.0,8.0,53,0.00,,,0.00,Wunderground v.1.15,2013-11-19 05:01:00,
2013-11-18 23:02:00,44.2,28.6,30.25,SE,142,7.0,8.0,54,0.00,,,0.00,Wunderground v.1.15,2013-11-19 05:02:00,
2013-11-18 23:03:00,44.2,28.6,30.25,SE,142,7.0,8.0,54,0.00,,,0.00,Wunderground v.1.15,2013-11-19 05:03:00,
2013-11-18 23:05:00,44.1,28.5,30.25,SE,139,6.0,8.0,54,0.00,,,0.00,Wunderground v.1.15,2013-11-19 05:05:00,
2013-11-18 23:10:00,43.9,28.3,30.26,SE,137,6.0,6.0,54,0.00,,,0.00,Wunderground v.1.15,2013-11-19 05:10:00,
2013-11-18 23:11:00,43.9,28.3,30.26,SE,136,6.0,6.0,54,0.00,,,0.00,Wunderground v.1.15,2013-11-19 05:11:00,
2013-11-18 23:12:00,43.9,27.9,30.26,SE,136,6.0,6.0,53,0.00,,,0.00,Wunderground v.1.15,2013-11-19 05:12:00,
2013-11-18 23:18:00,44.0,28.4,30.26,SE,146,5.0,7.0,54,0.00,,,0.00,Wunderground v.1.15,2013-11-19 05:18:00,
2013-11-18 23:24:00,43.9,28.3,30.26,SE,143,6.0,9.0,54,0.00,,,0.00,Wunderground v.1.15,2013-11-19 05:24:00,
2013-11-18 23:30:00,43.8,28.7,30.26,SSE,152,7.0,7.0,55,0.00,,,0.00,Wunderground v.1.15,2013-11-19 05:30:00,
2013-11-18 23:36:00,43.9,28.8,30.26,SSE,151,7.0,9.0,55,0.00,,,0.00,Wunderground v.1.15,2013-11-19 05:36:00,
2013-11-18 23:41:00,43.8,29.1,30.26,SE,140,7.0,9.0,56,0.00,,,0.00,Wunderground v.1.15,2013-11-19 05:41:00,
2013-11-18 23:46:00,43.6,28.9,30.26,SE,145,7.0,9.0,56,0.00,,,0.00,Wunderground v.1.15,2013-11-19 05:46:00,
2013-11-18 23:52:00,43.5,28.8,30.26,SE,146,7.0,8.0,56,0.00,,,0.00,Wunderground v.1.15,2013-11-19 05:52:00,
2013-11-18 23:58:00,44.1,29.4,30.26,SE,146,7.0,8.0,56,0.00,,,0.00,Wunderground v.1.15,2013-11-19 05:58:00,